Regional Weather Roundup
Issued by NWS Lake Charles, LA

Home | Current Version | Previous Version | Text Only | Print | Product List | Glossary On
Versions: 1 2 3 4 5 6 7 8 9 10 11 12 13 14 15 16 17 18 19 20 21 22 23 24 25 26 27 28 29 30 31 32 33 34 35 36 37 38 39 40 41 42 43 44 45 46 47 48 49 50
000
ASUS44 KLCH 181110
RWRLCH
REGIONAL WEATHER ROUNDUP
NATIONAL WEATHER SERVICE LAKE CHARLES LA
500 AM CST MON DEC 18 2017

Note: "fair" indicates few or no clouds below 12,000 feet with no
significant weather and/or obstructions to visibility.


ACROSS SOUTHEAST TEXAS

CITY           SKY/WX    TMP DP  RH WIND       PRES   REMARKS
BEAUMONT       LGT RAIN  60  59  96 NW5       30.12S FOG
BEAUMONT CITY  CLOUDY    59  57  91 N3        30.13S
ORANGE         CLOUDY    61  61 100 CALM      30.14R FOG
JASPER         CLOUDY    53  53 100 CALM      30.16S FOG
$$

ACROSS CENTRAL LOUISIANA

CITY           SKY/WX    TMP DP  RH WIND       PRES   REMARKS
LEESVILLE      FOG       55  55  99 CALM      30.14R VSB 1/2
FULLERTON      FOG       54  54 100 CALM      30.12R VSB 1/2
ALEXANDRIA INT FOG       53  53 100 CALM      30.14S VSB 1/2
ESLER FIELD    FOG       53  53 100 N3        30.15S VSB 3/4
DERIDDER       FOG       57  55  95 CALM      30.15S VSB 1/4
OAKDALE        FOG       58  57  96 CALM      30.15S VSB 3/4
OPELOUSAS      CLOUDY    59  59 100 CALM      30.13S FOG
$$

ACROSS SOUTHWEST AND SOUTH CENTRAL LOUISIANA

CITY           SKY/WX    TMP DP  RH WIND       PRES   REMARKS
SULPHUR        FOG       62  62 100 CALM      30.13S VSB 3/4
LAKE CHARLES   FOG       63  63 100 E5        30.12F VSB 1/2
CHENNAULT INT  FOG       62  62  99 CALM      30.12S VSB 1/4
CAMERON PHI    NOT AVBL
DEQUINCY       FOG       58  58  97 CALM      30.13S VSB 1/4
JENNINGS       FOG       62  62  99 N5        30.14R VSB 1/2
LAFAYETTE      LGT RAIN  63  63 100 CALM      30.13S FOG
NEW IBERIA     CLOUDY    63  61  93 CALM      30.13S FOG
ABBEVILLE      HVY RAIN  62  62 100 CALM      30.13R VSB 1
PATTERSON      CLOUDY    67  67 100 SE3       30.12S
SALT POINT       N/A     67  66  97 SE5       30.10S
$$

SELECTED SITES ACROSS THE REGION

CITY           SKY/WX    TMP DP  RH WIND       PRES   REMARKS
HOUSTON BUSH   MOCLDY    56  54  93 NW6       30.13R
HOUSTON HOBBY  CLOUDY    59  57  93 N5        30.11S
GALVESTON      CLOUDY    62  59  90 NE6       30.12S
COLLEGE STAT   CLOUDY    52  52 100 E3        30.14R FOG
CONROE         CLOUDY    53  53 100 CALM      30.14R
HUNTSVILLE     CLOUDY    51  50  96 NE3       30.14S FOG
LUFKIN         FOG       50  50 100 CALM      30.14F VSB 1/2
SHREVEPORT     FOG       48  48 100 N3        30.17S VSB 1/4
MONROE         FOG      N/A N/A N/A N5        30.19R VSB 1/2
NATCHEZ MS     FOG       54  54 100 NW5       30.16R VSB 3/4
BATON ROUGE    LGT RAIN  63  62  97 CALM      30.13S FOG
N.O. INTL ARPT TSTM      65  65 100 N3        30.13R
SLIDELL        LGT RAIN  64  62  93 CALM      30.14R FOG
$$

MARINE REPORTS

STATION/POSITION TIME  SKY/WX   TEMP    WIND        PRES    VSBY
                                AIR SEA DIR/SP/G
                 (UTC)          (F)     (DEG/KT/KT) (MB)    (MI)
BUOY 30 S HIGH I 0950            61 61   30/ 10/ 10 1019.3
WVE H/P(F/S)=  3/ 8

SEA RIM ST PARK  1100            60      60/  5/  6 1020.2S
PORT ARTHUR      1048            60 57   70/  3/  4 1020.1R
SABINE PASS N    1048            60 61   10/  2/  3 1021.5R
TEXAS POINT      NOT AVBL
CALCASIEU PASS   1036            62 58   40/  4/  5 1018.8F
LK CHARLES BEACH 1036            63 59              1019.3F
MARSH ISLAND     1000            63                   N/A
FRESH WATER LOCK NOT AVBL
AMERADA PASS     1036            66 56  130/  5/  9 1019.3F
$$



USA.gov is the U.S. government's official web portal to all federal, state and local government web resources and services.